MicroStrategy ROE 2010-2023 | MSTR

Current and historical return on equity (ROE) values for MicroStrategy (MSTR) over the last 10 years. Return on equity can be defined as the amount of net income returned as a percentage of shareholders equity. Return on equity measures a corporation's profitability by revealing how much profit a company generates with the money shareholders have invested.
MicroStrategy ROE - Return on Equity Historical Data
Date TTM Net Income Shareholder's Equity Return on Equity
2023-12-31 $0.43B $2.17B 40.22%
2023-09-30 $0.09B $0.84B 20.94%
2023-06-30 $0.21B $0.82B 121.35%
2023-03-31 $-0.88B $0.44B 1074.01%
2022-12-31 $-1.47B $-0.38B -6322.58%
2022-09-30 $-1.31B $-0.20B -360.14%
2022-06-30 $-1.32B $-0.19B -249.34%
2022-03-31 $-0.56B $0.86B -93.45%
2021-12-31 $-0.54B $0.98B -113.71%
2021-09-30 $-0.44B $0.46B -121.43%
2021-06-30 $-0.42B $0.08B -121.39%
2021-03-31 $-0.12B $0.37B -26.74%
2020-12-31 $-0.01B $0.55B -1.50%
2020-09-30 $0.00B $0.39B 0.44%
2020-06-30 $0.03B $0.46B 5.35%
2020-03-31 $0.04B $0.46B 8.65%
2019-12-31 $0.03B $0.51B 6.78%
2019-09-30 $0.03B $0.52B 4.94%
2019-06-30 $0.03B $0.50B 5.22%
2019-03-31 $0.01B $0.48B 2.30%
2018-12-31 $0.02B $0.53B 3.83%
2018-09-30 $-0.01B $0.64B -0.81%
2018-06-30 $-0.00B $0.62B 0.00%
2018-03-31 $0.00B $0.61B 0.83%
2017-12-31 $0.02B $0.61B 3.19%
2017-09-30 $0.08B $0.61B 13.07%
2017-06-30 $0.09B $0.59B 15.22%
2017-03-31 $0.09B $0.57B 17.62%
2016-12-31 $0.09B $0.55B 18.13%
2016-09-30 $0.10B $0.52B 20.49%
2016-06-30 $0.10B $0.49B 21.08%
2016-03-31 $0.10B $0.47B 23.12%
2015-12-31 $0.11B $0.46B 26.37%
2015-09-30 $0.09B $0.41B 24.35%
2015-06-30 $0.06B $0.38B 18.93%
2015-03-31 $0.03B $0.35B 10.09%
2014-12-31 $0.01B $0.32B 1.96%
2014-09-30 $-0.00B $0.30B -0.33%
2014-06-30 $0.02B $0.30B 5.64%
2014-03-31 $0.03B $0.31B 8.47%
2013-12-31 $0.08B $0.31B 28.87%
2013-09-30 $0.08B $0.29B 28.85%
2013-06-30 $0.06B $0.27B 26.87%
2013-03-31 $0.07B $0.28B 34.12%
2012-12-31 $0.02B $0.20B 10.81%
2012-09-30 $0.02B $0.19B 11.85%
2012-06-30 $0.02B $0.18B 12.30%
2012-03-31 $0.02B $0.17B 10.30%
2011-12-31 $0.02B $0.17B 11.20%
2011-09-30 $0.03B $0.16B 17.34%
2011-06-30 $0.03B $0.16B 18.83%
2011-03-31 $0.04B $0.15B 23.42%
2010-12-31 $0.04B $0.15B 25.11%
2010-09-30 $0.05B $0.16B 24.54%
2010-06-30 $0.06B $0.19B 30.46%
2010-03-31 $0.06B $0.21B 30.14%
2009-12-31 $0.08B $0.21B 40.65%
Sector Industry Market Cap Revenue
Computer and Technology Computer Software $19.922B $0.496B
MicroStrategy Incorporated, a leading worldwide provider of business intelligence software, today announced that GT Nexus has selected MicroStrategy to power the customer-facing analytics and reporting capabilities on its Global Logistics portal. The GT Nexus portal is an on demand technology platform that is used by importers, exporters, transportation carriers, suppliers, banks, and other partners to manage goods that are moving around the world. The GT Nexus system captures and stores hard-to-get data associated with global supply chains, and then fuels a range of Web applications that can be used by constituents to lower supply chain costs and improve control. MicroStrategy will help GT Nexus to deliver a wide range of analytics and reporting capabilities to its customers, which include Home Depot, Kmart, Xerox, Weyerhaeuser, and American Eagle Outfitters.
Stock Name Country Market Cap PE Ratio
Microsoft (MSFT) United States $2965.636B 36.09
Oracle (ORCL) United States $315.748B 25.70
Salesforce (CRM) United States $262.259B 43.75
Adobe (ADBE) United States $208.329B 34.83
Intuit (INTU) United States $169.448B 56.82
Synopsys (SNPS) United States $77.883B 56.18
Cadence Design Systems (CDNS) United States $76.295B 69.54
Dassault Systemes SA (DASTY) France $54.086B 35.45
Autodesk (ADSK) United States $46.309B 45.58
ANSYS (ANSS) United States $28.120B 47.44
PTC (PTC) United States $21.085B 62.10
SS&C Technologies Holdings (SSNC) United States $15.037B 14.80
Manhattan Associates (MANH) United States $13.936B 80.26
Open Text (OTEX) Canada $9.553B 10.25
Descartes Systems Group (DSGX) Canada $7.694B 67.40
Trend Micro (TMICY) Japan $7.087B 62.88
Pegasystems (PEGA) United States $4.834B 66.22
CommVault Systems (CVLT) United States $4.153B 74.12
Blackbaud (BLKB) United States $4.090B 36.59
ACI Worldwide (ACIW) United States $3.400B 17.46
Progress Software (PRGS) United States $2.212B 13.85
Verint Systems (VRNT) United States $1.818B 16.94
Sapiens (SPNS) Israel $1.656B 23.47
BlackBerry (BB) Canada $1.620B 0.00
PROS Holdings (PRO) United States $1.563B 0.00
Simulations Plus (SLP) United States $0.903B 66.41
Rand Worldwide (RWWI) United States $0.574B 0.00
Magic Software Enterprises (MGIC) Israel $0.567B 11.67
American Software (AMSWA) United States $0.353B 29.50
Canaan (CAN) China $0.176B 0.00
Rigetti Computing (RGTI) United States $0.175B 0.00
OptimizeRx (OPRX) United States $0.169B 0.00
Icad Inc (ICAD) United States $0.041B 0.00
Hanryu Holdings (HRYU) South Korea $0.033B 0.00
NetSol Technologies (NTWK) United States $0.030B 0.00
Neonode (NEON) Sweden $0.028B 0.00
Wetouch Technology (WETH) $0.024B 0.00
Smith Micro Software (SMSI) United States $0.020B 0.00
GSE Systems (GVP) United States $0.009B 0.00
SAP SE (SAP) Germany $0.000B 46.38